Weather History for Juanda, Indonesia

Change the Weather History Date:

Sunday, December 23, 2012

  Actual Average Record
Temperature  
Mean Temperature 83 °F -  
Max Temperature 89 °F - - ()
Min Temperature 77 °F - - ()
Cooling Degree Days 18    
Growing Degree Days 33 (Base 50)    
Moisture  
Dew Point 74 °F    
Average Humidity 75    
Maximum Humidity 94    
Minimum Humidity 59    
Precipitation  
Precipitation 0.00 in - - ()
Sea Level Pressure  
Sea Level Pressure 29.73 in    
Wind  
Wind Speed 5 mph ()    
Max Wind Speed 12 mph    
Max Gust Speed -    
Visibility 5.1 miles    
Events      
T = Trace of Precipitation, MM = Missing Value Source: Averaged Metar Reports

Daily Weather History Graph

Daily Weather History Graph

Search for Another Location

Airport:

Trip Planner

Search our weather history database for the weather conditions in past years. The results will help you decide how hot, cold, wet, or windy it might be!

Date:

Astronomy

Dec. 23, 2012 Rise Set
Actual Time 5:11 AM WIB 5:44 PM WIB
Civil Twilight 4:48 AM WIB 6:07 PM WIB
Nautical Twilight 4:21 AM WIB 6:34 PM WIB
Astronomical Twilight 3:54 AM WIB 7:01 PM WIB
Moon 1:41 PM WIB (12/23) 1:02 AM WIB (12/23)
Length of Visible Light 13h 19m
Length of Day
12h 33m
Waxing Gibbous, 77% of the Moon is Illuminated
Dec 23
Waxing Gibbous
Dec 28
Full
Jan 5
Last Quarter
Jan 12
New
Jan 19
First Quarter

Hourly Weather History & Observations

Time (WIB) Temp. Heat Index Dew Point Humidity Pressure Visibility Wind Dir Wind Speed Gust Speed Precip Events Conditions
4:00 AM 77.0 °F - 73.4 °F 89% 29.68 in 4.3 mi WSW 2.3 mph - N/A   Haze
4:30 AM 77.0 °F - 73.4 °F 89% 29.71 in 4.3 mi West 4.6 mph - N/A   Haze
5:00 AM 77.0 °F - 73.4 °F 89% 29.71 in 3.1 mi West 5.8 mph - N/A   Haze
5:30 AM 77.0 °F - 73.4 °F 89% 29.71 in 3.1 mi SW 3.5 mph - N/A   Haze
6:00 AM 77.0 °F - 73.4 °F 89% 29.74 in 3.1 mi WSW 4.6 mph - N/A   Haze
6:30 AM 77.0 °F - 75.2 °F 94% 29.74 in 1.9 mi SW 4.6 mph - N/A   Haze
7:00 AM 78.8 °F - 77.0 °F 94% 29.74 in 2.5 mi West 3.5 mph - N/A   Haze
7:30 AM 80.6 °F 85.4 °F 73.4 °F 79% 29.74 in 2.8 mi NW 3.5 mph - N/A   Haze
8:00 AM 84.2 °F 90.9 °F 73.4 °F 70% 29.74 in 5.0 mi South 6.9 mph - N/A   Unknown
8:30 AM 86.0 °F 93.4 °F 73.4 °F 66% 29.77 in 5.6 mi ESE 5.8 mph - N/A   Partly Cloudy
9:00 AM 86.0 °F 93.4 °F 73.4 °F 66% 29.77 in 6.2 mi North - - N/A   Partly Cloudy
10:00 AM 87.8 °F 97.6 °F 75.2 °F 66% 29.77 in 6.2 mi North - - N/A   Partly Cloudy
11:00 AM 89.6 °F 99.8 °F 75.2 °F 62% 29.74 in 6.2 mi ESE 9.2 mph - N/A   Partly Cloudy
11:30 AM 87.8 °F 97.6 °F 75.2 °F 66% 29.74 in 6.2 mi ESE 8.1 mph - N/A   Partly Cloudy
12:00 PM 89.6 °F 98.2 °F 73.4 °F 59% 29.71 in 6.2 mi SSE 10.4 mph - N/A   Partly Cloudy
12:30 PM 87.8 °F 97.6 °F 75.2 °F 66% 29.68 in 6.2 mi ESE 9.2 mph - N/A   Partly Cloudy
2:00 PM 87.8 °F 95.6 °F 73.4 °F 62% 29.68 in 6.2 mi NE 11.5 mph - N/A   Partly Cloudy
2:30 PM 84.2 °F 90.9 °F 73.4 °F 70% 29.68 in 6.2 mi NNE 11.5 mph - N/A   Partly Cloudy
3:00 PM 84.2 °F 90.9 °F 73.4 °F 70% 29.65 in 6.2 mi North 11.5 mph - N/A   Partly Cloudy
3:30 PM 84.2 °F 89.6 °F 71.6 °F 66% 29.65 in 6.2 mi North 9.2 mph - N/A   Partly Cloudy
4:00 PM - - - N/A% 29.65 in 6.2 mi NNE 6.9 mph - N/A   Partly Cloudy
5:00 PM 86.0 °F 91.8 °F 71.6 °F 62% 29.68 in 6.2 mi NNE 5.8 mph - N/A   Partly Cloudy
5:30 PM 84.2 °F 90.9 °F 73.4 °F 70% 29.68 in 6.2 mi NNE 8.1 mph - N/A   Partly Cloudy
6:30 PM 84.2 °F 90.9 °F 73.4 °F 70% 29.71 in 6.2 mi NNE 8.1 mph - N/A   Partly Cloudy
7:00 PM 84.2 °F 92.3 °F 75.2 °F 74% 29.74 in 5.0 mi NW 6.9 mph - N/A   Partly Cloudy
7:30 PM 84.2 °F 92.3 °F 75.2 °F 74% 29.74 in 5.6 mi NNW 6.9 mph - N/A   Partly Cloudy
8:00 PM 84.2 °F 92.3 °F 75.2 °F 74% 29.77 in 5.6 mi NW 6.9 mph - N/A   Partly Cloudy
8:30 PM 84.2 °F 92.3 °F 75.2 °F 74% 29.77 in 5.0 mi NW 5.8 mph - N/A   Partly Cloudy
9:00 PM 82.4 °F 89.5 °F 75.2 °F 79% 29.77 in 5.0 mi West 5.8 mph - N/A   Partly Cloudy
9:30 PM 80.6 °F 85.4 °F 73.4 °F 79% 29.77 in 5.0 mi West 5.8 mph - N/A   Partly Cloudy
10:00 PM 80.6 °F 85.4 °F 73.4 °F 79% 29.77 in 5.0 mi SW 6.9 mph - N/A   Partly Cloudy
10:30 PM 80.6 °F 85.4 °F 73.4 °F 79% 29.77 in 5.0 mi WSW 5.8 mph - N/A   Partly Cloudy
11:00 PM 78.8 °F - 73.4 °F 83% 29.77 in 5.0 mi West 4.6 mph - N/A   Partly Cloudy
11:30 PM 78.8 °F - 73.4 °F 83% 29.77 in 4.3 mi WSW 5.8 mph - N/A   Partly Cloudy